Weather Roundup
Issued by NWS

Home | Current Version | Previous Version | Graphics & Text | Print | Product List | Glossary Off
Versions: 1 2 3 4 5 6 7 8 9 10 11 12 13 14 15 16 17 18 19 20 21 22 23 24 25 26 27 28 29 30 31 32 33 34 35 36 37 38 39 40 41 42 43 44 45 46 47 48 49 50

000
NZUS93 KARX 290910
HRRWXR

CURRENT HOURLY OBSERVATIONS ACROSS
MUCH OF THE UPPER MISSISSIPPI VALLEY
NATIONAL WEATHER SERVICE LA CROSSE WI
300 AM CST THU JAN 29 2015


...SOUTHEAST MINNESOTA...


CITY           SKY/WX    TMP DP  RH WIND       PRES   REMARKS
ROCHESTER      CLOUDY    30  28  92 N23       29.85R FOG     WCI  17
ROCHESTER/MAYO CLOUDY    31  30  95 NW15G21   29.86R WCI  20
WINONA         CLOUDY    32  30  93 NW14      29.86S WCI  22
AUSTIN         CLOUDY    30  28  93 NW20G26   29.87R FOG     WCI  18
ALBERT LEA     CLOUDY    32  32 100 NW9G20    29.89R FOG     WCI  24
DODGE CENTER   FOG       30  30 100 NW17G23   29.87R VSB 1   WCI  18
PRESTON        CLOUDY    30  28  91 N14G28    29.84R FOG     WCI  19
OWATONNA       CLOUDY    32  30  93 NW17      29.91R FOG     WCI  21
FARIBAULT      CLOUDY    32  30  93 NW10G16   29.92R FOG     WCI  24
$$

...ELSEWHERE IN MINNESOTA...


CITY           SKY/WX    TMP DP  RH WIND       PRES   REMARKS
MINNEAPOLIS    CLOUDY    32  29  88 NW15      29.91R WCI  22
INTNL FALLS    CLOUDY    26  21  81 NW22      29.96R WCI  12
DULUTH         FLURRIES  30  25  81 N18G29    29.83R WCI  18
RED WING       CLOUDY    32  28  86 NW8       29.88S FOG     WCI  25
REDWOOD FALLS  CLOUDY    33  28  81 NW20G37   30.02R WCI  21
MANKATO        CLOUDY    34  28  80 NW17      29.94R WCI  23
WORTHINGTON    CLOUDY   N/A N/A N/A NW29G43   30.03R
FAIRMONT       CLOUDY    34  28  80 NW24G30   29.95R WCI  21
$$

...SOUTHWEST WISCONSIN...


CITY           SKY/WX    TMP DP  RH WIND       PRES   REMARKS
LA CROSSE      CLOUDY    32  28  85 NW10      29.83R WCI  24
PRAIRIE DU CHI CLOUDY    32  30  93 NW8       29.81R FOG     WCI  25
BOSCOBEL       CLOUDY    33  30  88 N6        29.79S FOG     WCI  28
LONE ROCK      CLOUDY    32  29  88 N7        29.77F FOG     WCI  26
PLATTEVILLE    CLOUDY    32  30  93 N8        29.74S WCI  25
FORT MC COY    CLOUDY    29  29 100 CALM      29.82F FOG
CAMP DOUGLAS   CLOUDY    28  28 100 NW3       29.80S FOG
VIROQUA        CLOUDY    30  30 100 NW7       29.78S WCI  23
WIS DELLS      CLOUDY    29  28  93 N3        29.77S FOG
$$

...ELSEWHERE IN WISCONSIN...


CITY           SKY/WX    TMP DP  RH WIND       PRES   REMARKS
MILWAUKEE      CLOUDY    32  25  75 CALM      29.75F
MADISON        CLOUDY    31  26  82 N6        29.74F WCI  25
GREEN BAY      CLOUDY    31  25  78 CALM      29.78F
EAU CLAIRE     CLOUDY    29  26  89 NW7       29.84S FOG     WCI  22
BLACK RVR FLS  CLOUDY    29  29 100 CALM      29.82S FOG
MEDFORD        FOG       25  24  96 NW6       29.78S VSB 1   WCI  18
WAUSAU         CLOUDY    26  25  96 NW5       29.77S FOG     WCI  20
WIS RAPIDS     CLOUDY    27  24  89 NW3       29.80S FOG
MARSHFIELD     CLOUDY    27  24  89 NW7       29.79R FOG     WCI  19
RICE LAKE      CLOUDY    30  28  95 NW8       29.86R FOG     WCI  22
$$

...NORTHEAST IOWA...


CITY           SKY/WX    TMP DP  RH WIND       PRES   REMARKS
DECORAH        CLOUDY    30  30 100 NW10      29.81R FOG     WCI  21
MASON CITY     CLOUDY    32  30  92 NW25      29.91R FOG     WCI  19
CHARLES CITY   CLOUDY    32  32 100 N20G30    29.85R WCI  20
OELWEIN        CLOUDY    32  32 100 N15       29.82R FOG     WCI  22
$$

...ELSEWHERE IN IOWA...


CITY           SKY/WX    TMP DP  RH WIND       PRES   REMARKS
DES MOINES     CLOUDY    37  30  75 N22G30    29.94R WCI  26
IOWA CITY      CLOUDY    34  31  88 NW14      29.79R WCI  25
FORT DODGE     CLOUDY    34  28  80 NW13G24   29.96R WCI  25
$$

...NORTHERN ILLINOIS...


CITY           SKY/WX    TMP DP  RH WIND       PRES   REMARKS
CHICAGO-OHARE  CLOUDY    35  27  72 S7        29.73F WCI  29
CHICAGO-MIDWAY CLOUDY    38  27  64 S10       29.73F WCI  31
MOLINE         PTCLDY    35  30  82 NW6       29.69R WCI  30
ROCKFORD       MOCLDY    31  26  82 E3        29.73F
PEORIA         MOCLDY    39  33  79 S8        29.68F WCI  33
$$

NOTE: "FAIR" INDICATES FEW OR NO CLOUDS BELOW 12,000 FEET WITH NO
SIGNIFICANT WEATHER AND/OR OBSTRUCTIONS TO VISIBILITY. WIND
SPEEDS ARE IN MILES-PER-HOUR.



USA.gov is the U.S. government's official web portal to all federal, state and local government web resources and services.